www.pogodaiklimat.ru

Погода и климат >> Архив погоды >> Канада >> Онтарио >> Берлингтон


ПОГОДА в Берлингтоне

  • Прогноз погоды в Берлингтоне
  • Монитор погоды в Берлингтоне

АРХИВ ПОГОДЫ в Берлингтоне

Время (UTC), дата Ветер
(напр.,м/с)
 
Видим.   Явления Облачность Т
(С)
Тd
(С)
f
(%)
Тe
(С)
Тes
(С)
Комфортность P
(гПа)
Po
(гПа)
Тmin
(С)
Tmax
(С)
R
(мм)
R24
(мм)
S
(см)
00 13.09 СВ 7 н/о н/о +18.1 +11.6 66 +17 +17 1025.3 1015.8 +14.3 +18.1
03 13.09 В 8 н/о н/о +17.8 +12.0 69 +17 +17 1026.3 1016.7
06 13.09 В 8 н/о н/о +17.3 +10.9 66 +16 +16 1026.3 1016.8 +14.3 +19.8 9
09 13.09 В 8 н/о н/о +16.1 +12.1 77 +15 +15 1024.8 1015.3
12 13.09 В 7 н/о н/о +15.6 +12.8 83 +14 +14 1024.3 1014.8 +15.2 +19.8
15 13.09 В 6 н/о н/о +16.1 +13.3 83 +15 +15 1023.5 1014.0
18 13.09 СВ 6 н/о н/о +17.7 +15.4 86 +17 +17 1021.4 1011.9 +15.2 +17.7
21 13.09 С 4 н/о н/о +19.3 +18.0 92 +21 +21 комфорт 1018.1 1008.6
00 14.09 ЮВ 6 н/о н/о +21.8 +17.4 76 +26 +26 душно 1016.1 1006.7 +15.2 +23.7
03 14.09 Ю 3 н/о н/о +20.4 +17.6 84 +24 +24 комфорт 1016.3 1006.9
06 14.09 Ю 7 н/о н/о +20.6 +18.4 87 +15.2 +23.7 2
09 14.09 ЮЗ 4 н/о н/о +19.9 +15.0 73 +22 +22 комфорт 1017.1 1007.7
12 14.09 ЮЗ 3 н/о н/о +17.8 +12.7 72 +18 +18 1019.0 1009.6 +17.6 +23.7
15 14.09 ЮЗ 5 н/о н/о +19.3 +12.5 65 +20 +20 1019.9 1010.5
18 14.09 З 5 н/о н/о +21.0 +11.8 56 +23 +23 комфорт 1019.6 1010.2 +17.6 +21.1
21 14.09 ЮЗ 4 н/о н/о +22.2 +10.3 47 +24 +24 комфорт 1019.3 1009.9
00 15.09 З 1 н/о н/о +20.4 +11.1 55 +23 +23 комфорт 1020.3 1010.8 +17.6 +22.3
03 15.09 З 2 н/о н/о +17.5 +12.8 74 +18 +18 1021.3 1011.8
06 15.09 З 1 н/о н/о +16.8 +14.4 86 +18 +18 1021.2 1011.7 +16.7 +22.3 7
09 15.09 ЮЗ 2 н/о н/о +15.9 +13.7 87 +16 +16 1020.8 1011.3
12 15.09 С 1 н/о н/о +15.1 +12.4 84 +16 +16 1021.0 1011.5 +14.8 +22.3
15 15.09 СВ 3 н/о н/о +17.5 +12.0 70
18 15.09 ЮВ 3 н/о н/о +17.0 +13.4 79 +17 +17 1020.6 1011.1 +14.8 +18.0
21 15.09 СВ 6 н/о н/о +16.0 +13.1 83 +15 +15 1019.2 1009.7
00 16.09 СВ 4 н/о н/о +16.9 +14.4 85 +17 +17 1019.4 1009.9 +14.8 +18.0
03 16.09 СВ 4 н/о н/о +17.1 +15.0 87 +17 +17 1019.3 1009.8
06 16.09 СВ 4 н/о н/о +17.3 +15.4 89 +17 +17 1018.8 1009.3 +14.8 +18.0
09 16.09 СВ 5 н/о н/о +17.4 +15.1 86 +17 +17 1018.7 1009.2
12 16.09 СВ 6 н/о н/о +17.7 +14.4 81 +17 +17 1019.3 1009.8 +16.7 +18.0
15 16.09 СВ 6 н/о н/о +17.7 +15.2 85 +17 +17 1019.8 1010.3
18 16.09 СВ 6 н/о н/о +18.0 +14.8 82 +18 +18 1019.5 1010.0 +15.9 +18.1
21 16.09 СВ 7 н/о н/о +18.0 +11.9 68 +17 +17 1019.4 1009.9
00 17.09 С 4 н/о н/о +17.2 +12.3 73 +17 +17 1019.9 1010.4 +17.0 +18.1
03 17.09 СЗ 2 н/о н/о +17.1 +12.2 73 +17 +17 1020.6 1011.1
06 17.09 С 3 н/о н/о +16.4 +12.6 78 +16 +16 1021.4 1011.9 +16.3 +18.1
09 17.09 С 4 н/о н/о +15.2 +11.6 79 +14 +14 1021.6 1012.1
12 17.09 СЗ 4 н/о н/о +15.5 +11.6 78 +15 +15 1023.2 1013.7 +14.7 +18.1
15 17.09 В 3 н/о н/о +17.4 +12.9 75 +18 +18 1024.0 1014.5
18 17.09 В 2 н/о н/о +18.0 +13.7 76 +19 +19 1023.3 1013.8 +14.7 +18.0
21 17.09 СВ 2 н/о н/о +19.2 +13.8 71 +21 +21 комфорт 1022.6 1013.1
00 18.09 СВ 1 н/о н/о +18.8 +15.1 79 +21 +21 комфорт 1022.3 1012.8 +14.7 +19.5
03 18.09 ЮЗ 1 н/о н/о +17.2 +12.1 72 +18 +18 1022.9 1013.4
06 18.09 З 1 н/о н/о +15.8 +11.8 77
09 18.09 ЮЗ 1 н/о н/о +15.6 +13.5 87 +16 +16 1023.4 1013.9
12 18.09 З 1 н/о н/о +16.4 +12.8 79 +18 +18 1024.9 1015.4
15 18.09 СВ 2 н/о н/о +17.5 +14.1 80 +18 +18 1024.9 1015.4
18 18.09 СВ 5 н/о н/о +18.8 +13.0 69 +19 +19 1024.9 1015.4 +18.9
21 18.09 СВ 5 н/о н/о +19.1 +14.6 75 +20 +20 1024.7 1015.2
00 19.09 СВ 3 н/о н/о +18.8 +15.6 82 +20 +20 1024.4 1014.9 +15.3 +19.3
03 19.09 С 3 н/о н/о +18.6 +16.2 86 +20 +20 1024.1 1014.6
06 19.09 З 1 н/о н/о +18.0 +15.0 83 +20 +20 1024.5 1015.0 +15.3 +19.3
09 19.09 В 2 н/о н/о +18.1 +12.5 70 +19 +19 1023.5 1014.0
12 19.09 штиль 0 н/о н/о +18.3 +13.7 75 +19 +19 1024.6 1015.1 +16.1 +19.3
15 19.09 СВ 2 н/о н/о +17.9 +14.2 79 +18 +18 1024.3 1014.8
18 19.09 СВ 5 н/о н/о +19.0 +16.1 83 +20 +20 1023.5 1014.0 +16.1 +19.8
21 19.09 ЮВ 5 н/о н/о +22.9 +8.1 39 +24 +24 комфорт 1022.2 1012.8

 

Местоположение метеостанции Берлингтон (Онтарио, Канада): широта 43.30 долгота -79.80 высота над уровнем моря 77 м.

В архиве по умолчанию представлена погода в Берлингтоне за последнюю неделю. Архивные данные за месяц целиком и за предыдущие месяцы, начиная с января 2011 года, Вы можете получить, выбрав интересующий диапазон дат из раскрывающегося списка и нажав кнопку "Ввод!".


*Определитесь, кто Вы:
робот инопланетянин человек

Внимание! Время в таблицах - всемирное. Для получения местного времени необходимо прибавить поправку, которая равна -5 ч.

Смотрите также архив погоды в соседних городах и на ближайших метеорологических станциях:

Погода в Гамильтоне (Онтарио, Канада) (8 км)
Погода в Гамильтон аэропорту (Онтарио, Канада) (18 км)
Погода в Вайнленде (Онтарио, Канада) (35 км)
Погода в Торонто (Онтарио, Канада) (43 км)
Погода в Гвелфе (Онтарио, Канада) (44 км)
Погода в Брантфорде (Онтарио, Канада) (47 км)
Погода в Порт-Уэллере (Онтарио, Канада) (48 км)
Погода в Торонто Острова аэропорту (Онтарио, Канада) (49 км)
Погода в Ватерлоо (Онтарио, Канада) (50 км)
Погода в Торонто-Сити (Онтарио, Канада) (52 км)

Пояснения к столбцам:

Ветер - указаны скорость ветра в м/с - средняя за 10 мин, порывы в срок и между сроками (в фигурных скобках) и направление, откуда дует ветер: С - северный, СВ - северо-восточный, В - восточный, ЮВ - юго-восточный, Ю - южный, ЮЗ - юго-западный, З - западный, СЗ - северо-западный.
Видимость - горизонтальная дальность видимости в метрах или километрах. При видимости от 1 до 10 км при отсутствии осадков обычно наблюдается дымка, при ухудшении видимости до 1 км и менее - туман. В сухую погоду видимость может ухудшаться дымом, пылью или мглою.
Явления - указаны атмосферные явления, наблюдавшиеся в срок или в последний час перед сроком; фигурными скобками обозначены явления, наблюдавшиеся между сроками (за 1-3 часа до срока); квадратными скобками обозначены град или гололедные отложения с указанием их диаметра в мм.
Облачность - указаны через наклонную черту общая и нижняя облачность в баллах и высота нижней границы облаков в метрах; квадратными скобками обозначены формы облаков: Ci - перистые, Cs - перисто-слоистые, Cc - перисто-кучевые, Ac - высококучевые, As - высокослоистые, Sc - слоисто-кучевые, Ns - слоисто-дождевые, Cu - кучевые, Cb - кучево-дождевые. Подробнее классификацию облаков см. в Атласе облаков (PDF).
T - Температура воздуха - температура, измеренная на высоте 2 м над землей.
Td - Температура точки росы - температура, при понижении до которой содержащийся в воздухе водяной пар достигнет насыщения.
f - Относительная влажность воздуха - влажноcть воздуха, измеренная на высоте 2 м над землей.
Te - Эффективная температура - температура, которую ощущает одетый по сезону человек в тени. Характеристика душности погоды. При расчете учитывается влияние влажности воздуха и скорости ветра на теплоощущения человека.
Tes - Эффективная температура на солнце - температура, которую ощущает человек, с поправкой на солнечный нагрев. Характеристика знойности погоды. Зависит от высоты солнца над горизонтом, облачности и скорости ветра. Ночью, в пасмурную погоду, а также при ветре 12 м/с и более поправка равна нулю.
P - Атмосферное давление - приведенное к уровню моря атмосферное давление.
Po - Атмосферное давление - измеренное на уровне метеостанции атмосферное давление.
Tmin - Минимальная температура - минимум температуры воздуха на высоте 2 м над землей.
Tmax - Максимальная температура - максимум температуры воздуха на высоте 2 м над землей.
R - Количество осадков - Количество выпавших осадков за период времени, мм. При наведении курсора мыши на число - период времени, за который выпало указанное количество осадков.
R24 - Количество осадков - Количество выпавших осадков за 24 часа, мм.
S - Снежный покров - Высота снежного покрова, см. При наведении курсора мыши на число - состояние снежного покрова и степень покрытия местности в баллах.